Tracking 27122 objects as of 25-Mar-2023
HD Live streaming from Space Station
objects crossing your sky now

COSMOS 520

Track COSMOS 520 now!
COSMOS 520 is classified as:


NORAD ID: 6192
Int'l Code: 1972-072A
Perigee: 8,452.8 km
Apogee: 31,789.1 km
Inclination: 72.2 °
Period: 715.2 minutes
Semi major axis: 26491 km
RCS: 12.5618 m2 (large)
Launch date: September 19, 1972
Source: Commonwealth of Independent States (former USSR) (CIS)
Launch site: PLESETSK MISSILE AND SPACE COMPLEX (PKMTR)
Your satellite tracking list
Your tracking list is empty




NASA's NSSDC Master Catalog

Two Line Element Set (TLE):
1 06192U 72072A   23083.25396738  .00000076  00000-0  00000-0 0  9998
2 06192  72.1863 267.2187 4404430 221.8584  90.9300  2.01340939371406
Source of the keplerian elements: AFSPC